Учаджи

Туркменистан     38˚05′23″N   62˚48′12″E
темп.,
°C
ветер,
м/с
пор.,
м/с
влажн.,
%
обл.,
%
осадки,
мм/ч
давл.,
гПа
погр.,
м
6 декабря, вс
вс623:00+2˚св34380 0.0 103195
02:00всв45430 0.0 1031137
05:00−1˚всв35441 0.0 103097
08:00−1˚всв454357 0.0 1031121
11:00+2˚всв453629 0.0 1031333
14:00+6˚св552933 0.0 1028499
17:00+5˚св673164 0.0 1027367
20:00+4˚св4830100 0.0 1028243
7 декабря, пн
пн723:00+4˚св5731100 0.0 1028263
02:00+2˚ссв4635100 0.0 1027249
05:00+1˚ссв4636100 0.0 1027254
08:00с5637100 0.0 1029258
11:00+1˚с4432100 0.0 1031334
14:00+3˚с442699 0.0 1030517
17:00+4˚с4523100 0.0 1030641
20:00+3˚ссв5626100 0.0 1031534
8 декабря, вт
вт823:00+1˚с4628100 0.0 1032426
02:00с3430100 0.0 1033270
05:00−1˚с4433100 0.1 1033248
08:00−2˚с3335100 0.0 1034237
11:00−1˚с113196 0.0 1036300
14:00+1˚ссз222586 0.0 1034530
17:00+2˚ссв322443 0.0 1034511
20:00+1˚св34280 0.0 1035216
9 декабря, ср
ср923:00всв23300 0.0 103536
02:00−1˚всв34310 0.0 1034113
05:00−2˚всв45320 0.0 1034182
08:00−2˚в34340 0.0 1035179
11:00в23280 0.0 1035271
14:00+2˚всв22230 0.0 1032464
17:00+3˚св33250 0.0 1031378
20:00+1˚св33320 0.0 103164
10 декабря, чт
чт1023:00всв33310 0.0 103132
02:00в23290 0.0 103026
05:00в23270 0.0 103026
08:00в23270 0.0 103125
11:00+2˚св222234 0.0 1032249
14:00+4˚ссв332298 0.0 1030341
17:00+4˚ссв342499 0.0 1030332
20:00+3˚с2227100 0.0 103141